User: anonymous   Login
Location: Unspecified
(0.0000°N, 0.0000°E)
Time: 08:41:51
(UTC+00:00)
Language:

HOOPOE (2U) - Orbit

View from above orbital plane
View from above orbital plane
View from above satellite
View from above satellite

Ground track
Ground track

The orbit data is extracted from the following two-line orbital elements,

1 42718U 98067LZ  18356.15972234  .08813836  12573-4  44196-3 0  9994
2 42718  51.6191  91.1207 0006689  20.3338 341.4464 16.42542197 90809
Epoch (UTC): 22 December 2018 03:50:00
Eccentricity: 0.0006689
inclination: 51.6191°
perigee height: 154 km
apogee height: 163 km
right ascension of ascending node: 91.1207°
argument of perigee: 20.3338°
revolutions per day: 16.42542197
mean anomaly at epoch: 341.4464°
orbit number at epoch: 9080

The dashed part of the orbit path shows where the satellite is in the earth's shadow,  

DLR